[[{"header":{"parameterUnit":"m.s-1","parameterCategory":1,"la1":30.2991,"la2":30.254,"lo1":-89.0895,"lo2":-89.0444,"dy":0.0017,"dx":0.0017,"nx":28,"ny":28,"refTime":"2025-07-06T09:00:00:Z","depth":0,"parameterNumber":2,"parameterNumberName":"U-component_of_WINDS"},"data":[0,0,0,0,0,0,0,0,0,0,0,0,0,0,0,0,0,0,0,0,0,0,0,0,0,0,0,0,0,0,0,0,0,0,0,0,0,0,0,0,0,0,0,0,0,0,0,0,0,0,0,0,0,0,0,0,0,0,3.1564,3.1565,0,3.1703,3.1705,3.1706,3.1676,3.1674,3.1671,3.1669,3.1813,3.1819,3.1826,0,0,0,0,0,0,0,0,0,0,0,0,0,3.1271,3.1277,3.1564,3.1565,3.1567,3.1703,3.1705,3.1707,3.1677,3.1674,3.167,3.1667,3.1811,3.1819,3.1826,0,0,0,0,0,0,0,0,0,0,0,0,0,3.1403,3.1279,3.1563,3.1569,3.157,3.1702,3.1705,3.1707,3.1677,3.1673,3.167,3.1666,3.1809,3.1818,3.1827,3.1963,0,0,3.1856,3.186,0,0,0,0,0,0,0,0,3.1396,3.1414,3.1566,3.1568,3.1571,3.1668,3.1655,3.1793,3.1678,3.1637,3.1669,3.1664,3.1768,3.1781,3.1816,3.197,3.1976,3.1857,3.1862,3.1867,3.1869,0,0,0,0,0,0,0,3.1387,3.1408,3.1619,3.1568,3.1571,3.1564,3.1578,3.1681,3.1723,3.164,3.1638,3.1655,3.1769,3.1807,3.1819,3.1978,3.1857,3.1865,3.1871,3.1874,3.2248,3.2252,0,0,0,0,0,0,3.1375,3.1401,3.1614,3.1623,3.1472,3.1572,3.1588,3.1641,3.1722,3.173,3.1658,3.1653,3.1792,3.1808,3.1824,3.1985,3.1866,3.1875,3.1881,3.2244,3.2249,3.2253,0,0,0,0,0,0,3.1369,3.1395,3.1609,3.1511,3.1538,3.1581,3.1641,3.1646,3.1683,3.1735,3.1743,3.1689,3.179,3.181,3.1928,3.199,3.188,3.1888,3.2238,3.2245,3.2251,3.2312,0,0,0,0,0,0,3.1361,3.1393,3.1445,3.1513,3.1543,3.1711,3.1645,3.1651,3.1699,3.1694,3.1766,3.1774,3.1788,3.1914,3.1937,3.2001,3.1895,3.2233,3.2241,3.2249,3.2304,3.232,3.2333,0,0,0,0,0,3.1351,3.1458,3.1448,3.1474,3.161,3.1715,3.1732,3.1746,3.1705,3.1757,3.179,3.1772,3.198,3.1926,3.1952,3.202,3.2229,3.2239,3.2248,3.2298,3.2317,3.2332,0,0,0,0,0,0,3.1399,3.1467,3.1457,3.159,3.1646,3.1709,3.1776,3.1765,3.1836,3.1828,3.1842,3.1858,3.1977,3.2011,3.195,3.2154,3.2099,3.2114,3.2128,3.2146,3.2159,3.2148,3.1903,0,0,0,0,0,3.1424,3.1504,3.156,3.1671,3.17,3.1733,3.178,3.1785,3.1844,3.1868,3.191,3.1969,3.2047,3.2099,3.2174,3.2309,3.2323,3.2369,3.2383,3.2394,3.2406,3.2477,3.2497,3.2285,3.2285,3.2285,0,0,3.1479,3.1526,3.1576,3.1682,3.1726,3.1807,3.1754,3.1843,3.1902,3.1882,3.1994,3.2027,3.2094,3.222,3.2277,3.2251,3.2468,3.2406,3.2415,3.2421,3.2489,3.2509,3.2527,3.2291,3.229,3.2289,0,0,3.1619,3.1664,3.176,3.1805,3.1872,3.1893,3.1916,3.1981,3.2001,3.2113,3.2099,3.217,3.2306,3.2353,3.2394,3.2549,3.2534,3.2573,3.2646,3.2715,3.2731,3.2746,3.2798,3.2817,3.2586,3.2586,3.2586,0,3.1678,3.1799,3.1811,3.19,3.1946,3.193,3.2026,3.207,3.2159,3.219,3.216,3.2326,3.2371,3.2506,3.2543,3.2578,3.2603,3.2564,3.2728,3.2743,3.2757,3.2807,3.2827,3.259,3.2589,3.2589,3.2589,0,3.1867,3.1951,3.2021,3.2105,3.2159,3.2252,3.2276,3.2329,3.2329,3.2353,3.2466,3.2518,3.2602,3.2635,3.2637,3.277,3.2751,3.2724,3.2668,3.2781,3.2828,3.2847,3.2596,3.2594,3.2593,3.2592,0,0,3.2042,3.2129,3.2154,3.2191,3.2263,3.2328,3.2419,3.2499,3.2543,3.2605,3.268,3.2793,3.2768,3.2815,3.2822,3.2883,3.2997,3.2848,3.2849,3.2871,3.3143,3.3161,3.3183,3.2988,3.2992,3.2995,3.3137,0,3.2187,3.2346,3.2357,3.2501,3.2577,3.2561,3.264,3.2692,3.2716,3.2784,3.2812,3.289,3.2852,3.288,3.294,3.2971,3.3052,3.2961,3.3057,3.306,3.3038,3.3209,3.3229,3.336,3.3156,3.3159,3.3161,0,3.2377,3.2441,3.2591,3.2649,3.2682,3.2752,3.2825,3.2891,3.2949,3.2962,3.3013,3.3011,3.3103,3.3044,3.317,3.3108,3.3148,3.3169,3.3174,3.3182,3.3116,3.3219,3.3403,3.3421,3.3191,3.3188,3.3186,0,3.2485,3.261,3.2715,3.2747,3.2818,3.2868,3.29,3.2954,3.3,3.3064,3.3094,3.3169,3.3209,3.3266,3.3283,3.324,3.3408,3.3352,3.342,3.3419,3.3455,3.3452,3.3645,3.3485,3.3484,3.3484,3.3484,0,3.2644,3.2736,3.2764,3.2829,3.2931,3.2943,3.3043,3.3072,3.312,3.3189,3.3181,3.3246,3.3266,3.3334,3.3349,3.3449,3.3468,3.348,3.3483,3.348,3.3478,3.3505,3.3495,3.3489,3.3488,3.3487,3.3486,0,3.2782,3.2805,3.2918,3.2975,3.2991,3.3064,3.3112,3.3174,3.3196,3.3283,3.3304,3.3339,3.3419,3.3442,3.3539,3.3548,3.3665,3.366,3.3645,3.3644,3.371,3.3702,3.3925,3.3954,3.3777,3.3778,3.378,0,3.2881,3.2951,3.3014,3.3059,3.3092,3.3166,3.3212,3.3226,3.3275,3.3344,3.3397,3.3475,3.3538,3.3666,3.37,3.3773,3.3769,3.3842,3.378,3.3773,3.3766,3.3761,3.3767,3.3853,3.3855,3.3856,3.3858,0,3.3053,3.306,3.3127,3.3197,3.3252,3.3308,3.3363,3.34,3.3422,3.3477,3.3557,3.3606,3.3702,3.3779,3.3853,3.3885,3.3875,3.3877,3.3896,3.3893,3.3879,3.3884,3.3674,3.3871,3.387,3.3869,3.3868,3.3868,3.3172,3.3232,3.3285,3.3359,3.34,3.345,3.351,3.3538,3.3605,3.3684,3.3688,3.3775,3.3829,3.3925,3.3962,3.4029,3.4008,3.4036,3.4043,3.4049,3.4053,3.387,3.4043,3.4043,3.4042,3.4042,3.4042,0,3.3341,3.3373,3.3441,3.3516,3.3573,3.3557,3.3616,3.3665,3.374,3.3791,3.3852,3.3943,3.4017,3.4056,3.4129,3.4175,3.4172,3.4194,3.419,3.4197,3.407,3.4044,3.4195,3.4195,3.4195,3.4195,3.4195,3.4195,3.3435,3.3534,3.3547,3.3666,3.3698,3.3782,3.3816,3.3861,3.3901,3.4002,3.4063,3.4087,3.4133,3.4209,3.4275,3.4285,3.4311,3.4335,3.4342,3.4222,3.4206,3.4191,3.4167,3.4341,3.4341,3.4462,3.4464,3.4464]},{"header":{"parameterUnit":"m.s-1","parameterCategory":1,"la1":30.2991,"la2":30.254,"lo1":-89.0895,"lo2":-89.0444,"dy":0.0017,"dx":0.0017,"nx":28,"ny":28,"refTime":"2025-07-06T09:00:00:Z","depth":0,"parameterNumber":3,"parameterNumberName":"V-component_of_WINDS"},"data":[0,0,0,0,0,0,0,0,0,0,0,0,0,0,0,0,0,0,0,0,0,0,0,0,0,0,0,0,0,0,0,0,0,0,0,0,0,0,0,0,0,0,0,0,0,0,0,0,0,0,0,0,0,0,0,0,0,0,1.5413,1.5412,0,1.5361,1.5361,1.536,1.5281,1.5279,1.5278,1.5277,1.5225,1.5225,1.5225,0,0,0,0,0,0,0,0,0,0,0,0,0,1.5442,1.5442,1.5413,1.5412,1.5412,1.5362,1.5361,1.536,1.5281,1.5279,1.5278,1.5276,1.5225,1.5225,1.5225,0,0,0,0,0,0,0,0,0,0,0,0,0,1.5414,1.5442,1.5413,1.5366,1.5361,1.5362,1.5361,1.536,1.5281,1.5279,1.5277,1.5275,1.5225,1.5225,1.5225,1.5267,0,0,1.5224,1.5224,0,0,0,0,0,0,0,0,1.5416,1.5413,1.5374,1.5369,1.5364,1.5325,1.5352,1.5329,1.5282,1.5312,1.5277,1.5274,1.526,1.5257,1.5252,1.5265,1.5262,1.5224,1.5224,1.5224,1.5224,0,0,0,0,0,0,0,1.5418,1.5415,1.5393,1.5373,1.5367,1.5347,1.5341,1.5347,1.5299,1.5309,1.5303,1.5298,1.5257,1.5252,1.525,1.5262,1.5224,1.5224,1.5224,1.5224,1.5304,1.5306,0,0,0,0,0,0,1.5427,1.5417,1.5394,1.5391,1.5385,1.5349,1.5342,1.534,1.5298,1.529,1.53,1.5295,1.5253,1.525,1.5248,1.5293,1.5224,1.5224,1.5224,1.5302,1.5304,1.5307,0,0,0,0,0,0,1.5428,1.5426,1.5396,1.5402,1.5397,1.535,1.5349,1.534,1.5335,1.5291,1.5282,1.5304,1.5252,1.5248,1.5262,1.529,1.5224,1.5224,1.5299,1.5303,1.5306,1.5386,0,0,0,0,0,0,1.5429,1.5426,1.5442,1.5403,1.5397,1.5412,1.5351,1.5341,1.5335,1.5328,1.5293,1.5285,1.525,1.5263,1.5262,1.5289,1.5224,1.5296,1.5301,1.5305,1.538,1.5391,1.54,0,0,0,0,0,1.543,1.5467,1.5443,1.5441,1.5416,1.5414,1.541,1.5368,1.5338,1.5353,1.5325,1.5286,1.5288,1.5265,1.5264,1.5291,1.5295,1.53,1.5304,1.5376,1.5389,1.54,0,0,0,0,0,0,1.5512,1.5462,1.5434,1.546,1.5442,1.54,1.5418,1.5384,1.5374,1.5368,1.5317,1.5309,1.533,1.5312,1.5287,1.5329,1.5285,1.529,1.534,1.5352,1.5362,1.5366,1.5224,0,0,0,0,0,1.5532,1.5535,1.5491,1.5518,1.551,1.5466,1.5463,1.5433,1.5412,1.5404,1.5376,1.5357,1.5353,1.5352,1.5346,1.5377,1.5367,1.5395,1.5405,1.5414,1.5418,1.5432,1.5443,1.5323,1.5323,1.5323,0,0,1.5576,1.5549,1.5553,1.5533,1.5516,1.5519,1.546,1.5466,1.5468,1.5405,1.5416,1.5395,1.537,1.5393,1.5402,1.5379,1.5449,1.542,1.5427,1.5427,1.5438,1.545,1.546,1.5326,1.5325,1.5325,0,0,1.5656,1.5636,1.5656,1.5639,1.5612,1.5582,1.5587,1.555,1.5534,1.5544,1.5496,1.5497,1.5491,1.5475,1.5466,1.5539,1.5502,1.5538,1.5591,1.5605,1.5614,1.5622,1.5647,1.5657,1.5543,1.5543,1.5543,0,1.5713,1.5716,1.567,1.5679,1.5671,1.5613,1.5632,1.5617,1.559,1.5586,1.556,1.5551,1.553,1.5547,1.5565,1.556,1.5563,1.5542,1.5617,1.5624,1.5631,1.5654,1.5664,1.5548,1.5547,1.5547,1.5546,0,1.5787,1.579,1.5809,1.5783,1.5777,1.5791,1.5747,1.5746,1.5716,1.5688,1.5699,1.5672,1.5658,1.566,1.5631,1.5673,1.5659,1.5626,1.5581,1.5648,1.5668,1.5677,1.5554,1.5552,1.5551,1.555,0,0,1.5918,1.5865,1.5873,1.586,1.5825,1.5826,1.5837,1.5823,1.5823,1.5806,1.5813,1.5809,1.5777,1.5767,1.5735,1.5748,1.5805,1.5713,1.5711,1.573,1.5847,1.5872,1.5883,1.578,1.5782,1.5783,1.5849,0,1.5991,1.6006,1.5964,1.5989,1.599,1.5934,1.5943,1.5923,1.5897,1.5894,1.5866,1.5863,1.5822,1.5816,1.5825,1.5796,1.5828,1.5791,1.5786,1.5786,1.5793,1.5894,1.592,1.5984,1.5857,1.5858,1.5859,0,1.6078,1.6064,1.6089,1.6052,1.605,1.6059,1.6042,1.604,1.6015,1.5996,1.5984,1.5946,1.5953,1.591,1.5918,1.5894,1.5889,1.5874,1.5876,1.5873,1.5827,1.5893,1.6003,1.6013,1.5872,1.5871,1.587,0,1.6169,1.6157,1.617,1.6161,1.6118,1.6125,1.6107,1.608,1.6074,1.6059,1.6054,1.6041,1.6034,1.6024,1.5983,1.5956,1.5995,1.5949,1.5979,1.598,1.5989,1.5989,1.6099,1.5988,1.5988,1.5988,1.5987,0,1.6254,1.6272,1.621,1.6219,1.6236,1.6187,1.6206,1.6183,1.6159,1.6161,1.6112,1.6115,1.6061,1.6058,1.6026,1.6037,1.6034,1.6018,1.6009,1.6022,1.6024,1.6018,1.6012,1.599,1.5989,1.5989,1.5989,0,1.6359,1.6319,1.633,1.6287,1.6277,1.6292,1.6255,1.626,1.6231,1.6234,1.6232,1.6187,1.618,1.6138,1.6123,1.6101,1.6123,1.6106,1.6131,1.6125,1.6156,1.6154,1.6266,1.6278,1.616,1.6161,1.6162,0,1.6416,1.6428,1.6387,1.6384,1.6368,1.6366,1.6358,1.6311,1.6306,1.6277,1.6286,1.6275,1.6264,1.6255,1.6221,1.6208,1.6189,1.623,1.6187,1.6199,1.6189,1.6188,1.6188,1.6239,1.624,1.6241,1.6242,0,1.6521,1.65,1.6491,1.6476,1.6469,1.6455,1.6437,1.6438,1.6385,1.6382,1.6374,1.6365,1.6348,1.6338,1.6318,1.6299,1.6262,1.6256,1.6262,1.6275,1.6289,1.628,1.6155,1.6254,1.6253,1.6252,1.6251,1.6251,1.6602,1.6609,1.6581,1.6573,1.6555,1.6539,1.6542,1.6512,1.6505,1.6487,1.6459,1.6455,1.6428,1.6398,1.6382,1.6378,1.6356,1.6365,1.6367,1.637,1.6376,1.629,1.6374,1.6374,1.6374,1.6373,1.6373,0,1.6703,1.6681,1.6675,1.6651,1.6645,1.661,1.6588,1.6585,1.6582,1.656,1.655,1.654,1.6529,1.6493,1.6478,1.6481,1.6464,1.6479,1.6478,1.6474,1.6397,1.6393,1.6493,1.6493,1.6493,1.6493,1.6493,1.6493,1.6755,1.6765,1.674,1.674,1.6718,1.6714,1.6704,1.6689,1.6671,1.6662,1.6653,1.6629,1.6601,1.6583,1.6572,1.6561,1.6557,1.6578,1.6562,1.6491,1.648,1.6468,1.6464,1.6578,1.6578,1.6639,1.664,1.664]}]]